METOP-B

Last updated on Tue Jul 01 2025 00:02:21 GMT+0000 (Coordinated Universal Time)

1 38771U 12049A 25181.51406779 .00000068 00000+0 50681-4 0 9995 2 38771 98.5758 235.1409 0000448 74.7760 285.3467 14.21468386663295
UTC large
Height (km)
Speed (km/s)
/
Latitude / Longitude
Inclination (degrees)
Orbital Period (minutes)
Azimuth
Elevation
Range (km)
Doppler Factor

Next 0 passes for location: London (51.5072 / 0.1276)

Sorry there are no passes over London.